Regional Weather Roundup
Issued by NWS Upton, NY

Current Version | Previous Version | Text Only | Print | Product List | Glossary On
Versions: 1 2 3 4 5 6 7 8 9 10 11 12 13 14 15 16 17 18 19 20 21 22 23 24 25 26 27 28 29 30 31 32 33 34 35 36 37 38 39 40 41 42 43 44 45 46 47 48 49 50
786
ASUS41 KOKX 220308
RWROKX

REGIONAL WEATHER ROUNDUP
NATIONAL WEATHER SERVICE NEW YORK NY
1100 PM EDT THU MAY 21 2015

NOTE: "FAIR" INDICATES FEW OR NO CLOUDS BELOW 12,000 FEET WITH NO
SIGNIFICANT WEATHER AND/OR OBSTRUCTIONS TO VISIBILITY.

NYZ071-072-176-178-NJZ106-104-220400-
NEW YORK CITY METRO AREA


CITY           SKY/WX    TMP DP  RH WIND       PRES   REMARKS
CENTRAL PARK   CLOUDY    55  44  66 CALM      29.92F
LAGUARDIA APRT CLOUDY    54  43  66 S8        29.89F
KENNEDY INTL   CLOUDY    53  44  71 S5        29.90F
NEWARK/LIBERTY CLOUDY    53  48  83 VRB3      29.90F
BRNX BOT. GARD   N/A     52  43  71 CALM      29.90F
TETERBORO      CLOUDY    54  45  71 S6        29.89F
$$

NYZ177-179-078>081-220400-
LONG ISLAND NEW YORK

CITY           SKY/WX    TMP DP  RH WIND       PRES   REMARKS
FARMINGDALE    CLOUDY    52  44  74 S5        29.90F
ISLIP          CLOUDY    52  44  74 S3        29.89F
SHIRLEY        CLOUDY    51  47  86 SE3       29.91F
WESTHAMPTON    CLOUDY    50  47  89 CALM      29.91F
MONTAUK POINT    N/A     51  46  83 VRB5      29.92F
$$

NYZ052-065-067-220400-
HUDSON VALLEY

CITY           SKY/WX    TMP DP  RH WIND       PRES   REMARKS
WHITE PLAINS   MOCLDY    51  43  74 CALM      29.88F
NEWBURGH       MOCLDY    55  45  67 SW6       29.89F
MONTGOMERY     CLOUDY    55  44  66 SW6       29.87F
POUGHKEEPSIE   CLOUDY    57  41  55 S3        29.86F
ALBANY         LGT RAIN  58  40  51 W5        29.86F
$$

NJZ001-105-106-008-010-013-015-019>022-104-220400-
NEW JERSEY

CITY           SKY/WX    TMP DP  RH WIND       PRES   REMARKS
NEWARK/LIBERTY CLOUDY    53  48  83 VRB3      29.90F
TETERBORO      CLOUDY    54  45  71 S6        29.89F
CALDWELL       CLOUDY    53  46  77 CALM      29.90F
MORRISTOWN     CLOUDY    54  46  76 CALM      29.90F
SOMERVILLE     CLOUDY    50  47  89 CALM      29.88F
SUSSEX         CLOUDY    54  43  66 CALM      29.90F
ANDOVER          N/A     52  44  74 CALM      29.89F
TRENTON        CLOUDY    51  49  92 W3        29.90F
MILLVILLE      CLOUDY    51  49  92 NW3       29.91F
ATLANTIC CITY  CLOUDY    50  48  93 N3        29.90F
WRIGHTSTOWN    CLOUDY    50  50 100 VRB3      29.88F
TOMS RIVER     CLOUDY    50  48  93 CALM      29.91F
BELMAR         CLOUDY    50  43  76 CALM      29.91F
$$

PAZ047>061-062-071-220400-
EASTERN PENNSYLVANIA

CITY           SKY/WX    TMP DP  RH WIND       PRES   REMARKS
PHILADELPHIA   CLOUDY    54  49  83 NW3       29.92F
ALLENTOWN      CLOUDY    52  41  66 W3        29.90F
SCRANTON       LGT RAIN  52  43  71 SW8       29.91F
$$

CTZ002-004>006-009-010-012-RIZ004-006-007-MAZ004-011-015-220400-
SOUTHERN NEW ENGLAND
 IN CT

CITY           SKY/WX    TMP DP  RH WIND       PRES   REMARKS
BRADLEY INTL   CLOUDY    56  41  57 S10       29.87F
HARTFORD       CLOUDY    54  43  66 S6        29.89F
DANBURY        CLOUDY    52  44  74 S3        29.90F
WTRBRY/OXFORD  CLOUDY    52  41  66 SW3       29.91F
BRIDGEPORT     CLOUDY    54  46  74 SW6       29.90F
MERIDEN        CLOUDY    53  45  74 S5        29.89F
NEW HAVEN      CLOUDY    53  46  77 S5        29.90F
CHESTER        CLOUDY    52  43  71 CALM      29.91F
GROTON         CLOUDY    52  46  80 CALM      29.90F
WILLIMANTIC    CLOUDY    54  40  59 S5        29.90F

 IN RI

CITY           SKY/WX    TMP DP  RH WIND       PRES   REMARKS
PROVIDENCE     CLOUDY    54  39  57 SW8       29.91F
BLOCK ISLAND   CLOUDY    50  45  81 SW7       29.91F
WESTERLY       CLOUDY    52  46  80 S6        29.92F

 IN MA

CITY           SKY/WX    TMP DP  RH WIND       PRES   REMARKS
BOSTON         CLOUDY    56  39  53 S12       29.88F
WORCESTER      CLOUDY    53  37  54 SW12      29.88F
WESTFIELD      CLOUDY    56  39  53 S8        29.87F
PROVINCETOWN   CLOUDY    54  45  71 SW15G22   29.92F
NANTUCKET      RAIN      51  47  86 SW7       29.95F
$$

ANZ330-335-338-340-345-350-353-355-220400-
COASTAL MARINE OBSERVATIONS


STATION/POSITION TIME  SKY/WX   TEMP    WIND        PRES    VSBY  WAVE
                                AIR SEA DIR/SP/G                  HT/PER
                 (UTC)          (F)     (DEG/KT/KT) (MB)    (MI)  (FT/S)
NY HARB ENTRANCE 0250            52 56  180/  6/  6 1012.1          1/ 8
4S FIRE IS       0203               53                N/A           1/ 9
20S FIRE ISLAND  0250            50 54   90/  2/  4 1012.6          1/ 9
GREAT SOUTH BAY  0200            53 63  190/  2/  4   N/A
23SW MTP         0250            50 54   CALM  /  2 1012.7          1/ 8
HUDSON CANYON    NOT AVBL
KINGS POINT      0200            53 55  190/  6/  7 1012.3
CENTRAL LI SOUND 0215            52 53  220/  6/  8   N/A
EASTERN LI SOUND 0200            52     210/  6/  8   N/A
ROBBINS REEF     0200            53     180/  7/  8 1011.7
$$


>>>>>>>>>>>>>>>>>>>>>>>>>>>> KEY <<<<<<<<<<<<<<<<<<<<<<<<<<<
>                                                          <
>     SKY/WX - SKY CONDITION/PRESENT WEATHER               <
>     TMP    - TEMPERATURE IN FAHRENHEIT                   <
>     DP     - DEWPOINT IN FAHRENHEIT                      <
>     RH     - RELATIVE HUMIDITY IN PERCENT                <
>     WIND   - DIRECTION AND SPEED IN MPH                  <
>     PRES   - MEAN SEA LEVEL PRESSURE IN INCHES OF HG     <
>     WCI    - WIND CHILL INDEX                            <
>     VSB    - VISIBILITY IN MILES                         <
>     HX     - HEAT INDEX                                  <
>     TC     - TEMPERATURE IN CELSIUS                      <
>     VRB    - VARIABLE WIND DIRECTION                     <
>                                                          <
>>>>>>>>>>>>>>>>>>>>>>>>>>>> KEY <<<<<<<<<<<<<<<<<<<<<<<<<<<





USA.gov is the U.S. government's official web portal to all federal, state and local government web resources and services.